Date String (YYYY-MM-DD hh:mm:ss) UTC,Instrument flags,absolute air pressure of the measurement (hPa),sample flow rate (lpm),inlet stack bypass flow (lpm),air temperature of the measurement (°C),ambient temperature measured by the external sensor (°C),aerosol sample conditioner tube jacket temperature (°C),OPC LED temperature (°C),internal box temperature (°C),relative humidity of the measurement (%),span deviation,mass concentration of particles derived from Lorenz-Mie calculation of OPC scattering (μg/m³),mass concentration of particles derived from Lorenz-Mie calculation of OPC scattering (μg/m³),mass concentration of particles derived from Lorenz-Mie calculation of OPC scattering (μg/m³)
DateTimeUTC,F1_M11,P_M11,Q1_M11,Q2_M11,T1_M11,T2_M11,T3_M11,T4_M11,T5_M11,U1_M11,ZSPAN_M11,X0_M11,X2_M11,X1_M11
2024-01-25 19:00:00,SystemResetWarning,0825.9,5.00,000.00,023.5,022.9,000.0,031.7,025.0,14.1,0000.0,0007.40,0003.58,0003.38
2024-01-25 19:01:00,SystemResetWarning,0825.9,5.00,000.00,023.5,022.9,000.0,031.7,025.0,14.1,0000.0,0007.42,0003.55,0003.36
2024-01-25 19:02:00,SystemResetWarning,0825.9,5.00,000.00,023.6,022.9,000.0,031.7,025.1,14.4,0000.0,0006.93,0003.53,0003.35
2024-01-25 19:03:00,SystemResetWarning,0825.9,5.00,000.00,023.6,022.9,000.0,031.7,025.1,14.4,0000.0,0006.42,0003.53,0003.36
2024-01-25 19:04:00,SystemResetWarning,0825.9,5.00,000.00,023.6,023.0,000.0,031.7,025.1,14.2,0000.0,0006.66,0003.56,0003.38
2024-01-25 19:05:00,SystemResetWarning,0825.9,5.00,000.00,023.6,023.0,000.0,031.8,025.1,14.2,0000.0,0007.00,0003.57,0003.41
2024-01-25 19:06:00,SystemResetWarning,0825.9,5.00,000.00,023.6,023.0,000.0,031.8,025.1,14.1,0000.0,0007.05,0003.60,0003.45
2024-01-25 19:07:00,SystemResetWarning,0825.9,5.00,000.00,023.6,023.0,000.0,031.8,025.1,14.0,0000.0,0006.18,0003.65,0003.50
2024-01-25 19:08:00,SystemResetWarning,0825.9,5.00,000.00,023.6,023.0,000.0,031.8,025.1,13.8,0000.0,0006.44,0003.75,0003.59
2024-01-25 19:09:00,SystemResetWarning,0825.8,5.00,000.00,023.7,023.0,000.0,031.8,025.1,13.5,0000.0,0006.57,0003.82,0003.67
2024-01-25 19:10:00,SystemResetWarning,0825.8,5.01,000.00,023.7,023.1,000.0,031.8,025.2,13.6,0000.0,0006.84,0003.91,0003.73
2024-01-25 19:11:00,SystemResetWarning,0825.8,5.00,000.00,023.7,023.1,000.0,031.8,025.2,13.9,0000.0,0006.77,0003.99,0003.80
2024-01-25 19:12:00,SystemResetWarning,0825.8,5.00,000.00,023.7,023.1,000.0,031.9,025.2,13.8,0000.0,0006.90,0004.11,0003.91
2024-01-25 19:13:00,SystemResetWarning,0825.8,5.00,000.00,023.7,023.1,000.0,031.9,025.2,13.8,0000.0,0007.08,0004.20,0003.99
2024-01-25 19:14:00,SystemResetWarning,0825.8,5.00,000.00,023.7,023.1,000.0,031.9,025.2,13.7,0000.0,0007.25,0004.25,0004.03
2024-01-25 19:15:00,SystemResetWarning,0825.7,5.00,000.00,023.7,023.2,000.0,031.9,025.2,13.3,0000.0,0007.13,0004.29,0004.08
2024-01-25 19:16:00,SystemResetWarning,0825.7,5.00,000.00,023.8,023.2,000.0,031.9,025.2,13.2,0000.0,0006.95,0004.33,0004.12
2024-01-25 19:17:00,SystemResetWarning,0825.7,5.00,000.00,023.8,023.2,000.0,031.9,025.2,13.2,0000.0,0006.77,0004.36,0004.15
2024-01-25 19:18:00,SystemResetWarning,0825.7,5.00,000.00,023.8,023.2,000.0,032.0,025.2,13.0,0000.0,0006.82,0004.39,0004.17
2024-01-25 19:19:00,SystemResetWarning,0825.6,5.00,000.00,023.8,023.2,000.0,032.0,025.3,12.8,0000.0,0007.01,0004.41,0004.18
2024-01-25 19:20:00,SystemResetWarning,0825.7,5.00,000.00,023.8,023.2,000.0,032.0,025.3,13.0,0000.0,0007.26,0004.45,0004.19
2024-01-25 19:21:00,SystemResetWarning,0825.7,5.00,000.00,023.8,023.2,000.0,032.0,025.3,13.0,0000.0,0007.75,0004.51,0004.21
2024-01-25 19:22:00,SystemResetWarning,0825.6,5.00,000.00,023.9,023.3,000.0,032.0,025.3,13.4,0000.0,0007.67,0004.53,0004.23
2024-01-25 19:23:00,SystemResetWarning,0825.6,5.01,000.00,023.9,023.3,000.0,032.0,025.3,13.2,0000.0,0008.23,0004.57,0004.26
2024-01-25 19:24:00,SystemResetWarning,0825.7,5.01,000.00,023.9,023.3,000.0,032.0,025.4,13.2,0000.0,0008.28,0004.62,0004.30
2024-01-25 19:25:00,SystemResetWarning,0825.6,5.00,000.00,023.9,023.3,000.0,032.1,025.4,13.3,0000.0,0008.46,0004.68,0004.34
2024-01-25 19:26:00,SystemResetWarning,0825.7,5.00,000.00,023.9,023.3,000.0,032.1,025.3,13.5,0000.0,0008.70,0004.72,0004.39
2024-01-25 19:27:00,SystemResetWarning,0825.6,5.00,000.00,023.9,023.3,000.0,032.1,025.3,13.4,0000.0,0008.72,0004.77,0004.45
2024-01-25 19:28:00,SystemResetWarning,0825.6,5.00,000.00,023.9,023.3,000.0,032.1,025.3,13.3,0000.0,0008.68,0004.83,0004.49
2024-01-25 19:29:00,SystemResetWarning,0825.6,5.00,000.00,023.9,023.3,000.0,032.1,025.4,13.3,0000.0,0008.69,0004.88,0004.55
2024-01-25 19:30:00,SystemResetWarning,0825.5,5.00,000.00,023.9,023.3,000.0,032.1,025.4,13.2,0000.0,0008.62,0004.91,0004.59
2024-01-25 19:31:00,SystemResetWarning,0825.6,5.00,000.00,024.0,023.3,000.0,032.1,025.4,13.3,0000.0,0008.50,0004.91,0004.60
2024-01-25 19:32:00,SystemResetWarning,0825.5,5.00,000.00,024.0,023.4,000.0,032.2,025.4,13.0,0000.0,0008.04,0004.85,0004.59
2024-01-25 19:33:00,SystemResetWarning,0825.5,5.00,000.00,024.0,023.4,000.0,032.2,025.4,13.0,0000.0,0007.94,0004.84,0004.58
2024-01-25 19:34:00,SystemResetWarning,0825.5,5.00,000.00,024.0,023.4,000.0,032.2,025.5,13.1,0000.0,0007.47,0004.82,0004.55
2024-01-25 19:35:00,SystemResetWarning,0825.5,5.00,000.00,024.0,023.4,000.0,032.2,025.5,12.7,0000.0,0007.50,0004.78,0004.53
2024-01-25 19:36:00,SystemResetWarning,0825.5,5.00,000.00,024.0,023.4,000.0,032.2,025.5,12.8,0000.0,0007.39,0004.77,0004.52
2024-01-25 19:37:00,SystemResetWarning,0825.5,5.00,000.00,024.0,023.4,000.0,032.2,025.5,12.5,0000.0,0007.19,0004.77,0004.50
2024-01-25 19:38:00,SystemResetWarning,0825.5,5.00,000.00,024.0,023.4,000.0,032.2,025.5,12.5,0000.0,0007.60,0004.71,0004.44
2024-01-25 19:39:00,SystemResetWarning,0825.4,5.01,000.00,024.0,023.4,000.0,032.2,025.5,12.3,0000.0,0007.61,0004.62,0004.36
2024-01-25 19:40:00,SystemResetWarning,0825.4,5.01,000.00,024.1,023.4,000.0,032.3,025.5,12.6,0000.0,0007.60,0004.55,0004.28
2024-01-25 19:41:00,SystemResetWarning,0825.4,5.00,000.00,024.1,023.4,000.0,032.3,025.5,12.5,0000.0,0007.61,0004.50,0004.21
2024-01-25 19:42:00,SystemResetWarning,0825.4,5.00,000.00,024.1,023.5,000.0,032.3,025.5,12.4,0000.0,0007.64,0004.41,0004.13
2024-01-25 19:43:00,SystemResetWarning,0825.4,5.00,000.00,024.1,023.5,000.0,032.3,025.5,12.7,0000.0,0007.55,0004.33,0004.05
2024-01-25 19:44:00,SystemResetWarning,0825.4,5.00,000.00,024.1,023.5,000.0,032.3,025.5,12.6,0000.0,0007.56,0004.29,0003.99
2024-01-25 19:45:00,SystemResetWarning,0825.3,5.00,000.00,024.1,023.5,000.0,032.3,025.6,13.0,0000.0,0007.42,0004.25,0003.95
2024-01-25 19:46:00,SystemResetWarning,0825.3,5.00,000.00,024.1,023.5,000.0,032.3,025.5,13.0,0000.0,0007.41,0004.24,0003.93
2024-01-25 19:47:00,SystemResetWarning,0825.3,5.00,000.00,024.2,023.5,000.0,032.3,025.6,12.9,0000.0,0007.35,0004.21,0003.90
2024-01-25 19:48:00,SystemResetWarning,0825.3,5.00,000.00,024.2,023.5,000.0,032.4,025.5,12.6,0000.0,0007.34,0004.20,0003.88
2024-01-25 19:49:00,SystemResetWarning,0825.3,5.00,000.00,024.2,023.5,000.0,032.4,025.5,12.5,0000.0,0006.76,0004.26,0003.91
2024-01-25 19:50:00,SystemResetWarning,0825.3,5.00,000.00,024.2,023.5,000.0,032.4,025.5,12.5,0000.0,0006.94,0004.35,0003.97
2024-01-25 19:51:00,SystemResetWarning,0825.3,5.01,000.00,024.2,023.5,000.0,032.4,025.5,12.7,0000.0,0007.84,0004.39,0003.99
2024-01-25 19:52:00,SystemResetWarning,0825.3,5.00,000.00,024.2,023.5,000.0,032.4,025.6,12.9,0000.0,0008.58,0004.42,0004.02
2024-01-25 19:53:00,SystemResetWarning,0825.2,5.01,000.00,024.2,023.5,000.0,032.4,025.6,13.0,0000.0,0008.66,0004.48,0004.09
2024-01-25 19:54:00,SystemResetWarning,0825.2,5.00,000.00,024.2,023.6,000.0,032.4,025.5,12.9,0000.0,0009.17,0004.58,0004.17
2024-01-25 19:55:00,SystemResetWarning,0825.3,4.99,000.00,024.2,023.6,000.0,032.4,025.6,12.6,0000.0,0010.24,0004.61,0004.25
2024-01-25 19:56:00,SystemResetWarning,0825.3,5.00,000.00,024.2,023.6,000.0,032.4,025.6,12.5,0000.0,0010.29,0004.66,0004.29
2024-01-25 19:57:00,SystemResetWarning,0825.3,5.00,000.00,024.2,023.6,000.0,032.4,025.5,12.7,0000.0,0010.27,0004.67,0004.29
2024-01-25 19:58:00,SystemResetWarning,0825.3,5.00,000.00,024.2,023.6,000.0,032.5,025.5,12.7,0000.0,0010.28,0004.65,0004.27
2024-01-25 19:59:00,SystemResetWarning,0825.3,5.00,000.00,024.2,023.6,000.0,032.5,025.5,12.9,0000.0,0010.24,0004.61,0004.23
